Location: Newark
(50.1395°N, 5.5234°W)
Time: 21:12:14
(UTC+00:00)

ISS - Pass Details

Date: 08 March 2021
Orbit: 418 x 422 km, 51.6° (Epoch: 16 April)

Event Time Altitude Azimuth Distance (km) Brightness Sun altitude
Exits shadow 04:42:58 71° 101° (E) 446 -3.6 -21.0°
Drops below altitude 10° 04:46:00 10° 106° (ESE) 1,497 -0.2 -20.6°
Sets 04:48:06 0° 106° (ESE) 2,360 1.0 -20.3°
